sat.trackr.live / text

‹ back to catalog

GSAT0219 (GALILEO 23)

NORAD 43566 · 2018-060C

PAYLOAD ACTIVE UNKNOWN

§ Identity

Operator
Country
ESA
Launch date
2018-07-25
Launch site
FRGUI
Launch vehicle
Mass (kg)
RCS (m²)

Purposes: earth_obs, nav

External: N2YO · Heavens-Above · Gunter

§ Orbital elements

Epoch: 2026-09-18T04:27:27.611136Z

Period
844.69 min
Inclination
57.1346°
Eccentricity
0.0003548
Mean motion
1.70476457 rev/d
Perigee alt
23,211.4 km
Apogee alt
23,232.4 km
Semi-major
29,600.0 km
B*
0.0000e+0
RAAN
339.2746°
Arg perigee
271.8636°
Mean anomaly
88.1484°
Rev number
5,077

§ Raw data

GSAT0219 (GALILEO 23)1 43566U 18060C   26261.18573624 -.00000095  00000+0  00000+0 0  99952 43566  57.1346 339.2746 0003548 271.8636  88.1484  1.70476457 50772

JSON: /api/v1/satellites/43566 · /tle

For live sub-satellite position, see the globe view (requires WebGL).

§ Visibility from observer

Set your observer location to see the next 7 days of passes ≥ 10°. The values pass through the URL so the page stays shareable.

No JS? Fill the form by hand. The geolocation button needs JavaScript.